Visibility
13.7 15.0 7.3 13.8 6.1 9.8 10.3 5.5 7.1 8.9 15.0 15.0 15.0 5.1 11.4 15.0 5.5 6.2 11.3 14.7 15.0 15.0 15.0 15.0 15.0 15.0 15.0 15.0 15.0 15.0 15.0 15.0 15.0 15.0 15.0 15.0 15.0 15.0
15.0 15.0 14.3 12.3 11.5 6.0 9.3 7.9 12.0 8.1 5.4 14.3 2.6 12.7 2.1 14.8 15.0 15.0 15.0 15.0 15.0 15.0 15.0 15.0 15.0 15.0 15.0 15.0 15.0 15.0 15.0 15.0 15.0 15.0 15.0 15.0 15.0 13.1
15.0 15.0 15.0 14.4 15.0 15.0 15.0 14.2 11.8 3.3 3.4 11.8 10.2 14.5 15.0 15.0 15.0 15.0 15.0 15.0 15.0 15.0 15.0 15.0 15.0 15.0 15.0 15.0 15.0 15.0 15.0 15.0 15.0 15.0 15.0 15.0 15.0 15.0
15.0 15.0 15.0 15.0 15.0 15.0 15.0 1.6 0.8 1.0 11.6 6.1 5.9 15.0 15.0 15.0 15.0 15.0 15.0 15.0 15.0 15.0 15.0 15.0 15.0 15.0 15.0 15.0 15.0 15.0 15.0 14.7 15.0 15.0 15.0 15.0 15.0 15.0
15.0 15.0 15.0 15.0 15.0 15.0 15.0 15.0 15.0 13.7 15.0 5.4 15.0 15.0 15.0 15.0 15.0 15.0 15.0 15.0 15.0 15.0 15.0 15.0 15.0 15.0 15.0 15.0 15.0 15.0 15.0 15.0 15.0 15.0 15.0 15.0 15.0 15.0
15.0 15.0 15.0 15.0 15.0 15.0 15.0 15.0 13.7 15.0 15.0 15.0 15.0 15.0 15.0 15.0 15.0 15.0 15.0 15.0 15.0 15.0 15.0 15.0 15.0 15.0 15.0 15.0 15.0 15.0 15.0 15.0 15.0 15.0 15.0 15.0 14.6 15.0
3.9 6.6 15.0 15.0 15.0 15.0 15.0 13.3 15.0 9.6 12.3 15.0 9.2 15.0 15.0 15.0 15.0 15.0 15.0 15.0 15.0 15.0 15.0 15.0 15.0 15.0 15.0 15.0 15.0 15.0 15.0 15.0 15.0 15.0 15.0 15.0 14.8 15.0
0.1 0.0 0.1 0.1 15.0 15.0 15.0 15.0 15.0 15.0 15.0 15.0 15.0 15.0 15.0 15.0 15.0 15.0 15.0 15.0 15.0 15.0 15.0 15.0 15.0 15.0 15.0 15.0 15.0 15.0 15.0 15.0 15.0 15.0 15.0 15.0 15.0 15.0
2.0 0.2 5.1 15.0 15.0 15.0 15.0 15.0 15.0 15.0 15.0 15.0 15.0 15.0 15.0 15.0 15.0 15.0 15.0 13.8 15.0 15.0 15.0 15.0 15.0 15.0 15.0 15.0 15.0 15.0 15.0 15.0 15.0 15.0 15.0 15.0 15.0 15.0
15.0 15.0 15.0 15.0 15.0 15.0 15.0 15.0 15.0 15.0 15.0 15.0 15.0 15.0 15.0 15.0 15.0 15.0 15.0 15.0 15.0 15.0 15.0 8.5 15.0 15.0 15.0 15.0 15.0 15.0 15.0 15.0 15.0 15.0 15.0 15.0 15.0 15.0
15.0 15.0 15.0 15.0 15.0 15.0 15.0 15.0 15.0 15.0 15.0 15.0 15.0 15.0 15.0 15.0 15.0 15.0 15.0 15.0 15.0 15.0 15.0 14.8 15.0 15.0 15.0 15.0 15.0 15.0 15.0 15.0 15.0 15.0 15.0 15.0 15.0 15.0
15.0 15.0 15.0 15.0 15.0 15.0 15.0 15.0 15.0 15.0 15.0 15.0 15.0 15.0 15.0 15.0 15.0 15.0 12.2 15.0 15.0 7.0 15.0 0.4 5.2 2.0 9.3 15.0 15.0 15.0 15.0 15.0 15.0 15.0 15.0 15.0 15.0 15.0
15.0 15.0 15.0 15.0 15.0 15.0 15.0 15.0 15.0 15.0 15.0 15.0 15.0 15.0 15.0 15.0 15.0 15.0 15.0 8.2 1.6 4.9 15.0 0.2 1.0 2.8 0.3 5.3 13.0 15.0 15.0 15.0 15.0 15.0 15.0 15.0 15.0 15.0
15.0 15.0 15.0 15.0 15.0 15.0 15.0 15.0 15.0 15.0 15.0 15.0 15.0 15.0 13.2 15.0 15.0 15.0 15.0 15.0 15.0 7.5 14.9 1.9 0.2 0.3 0.4 1.6 8.5 15.0 15.0 15.0 15.0 15.0 15.0 15.0 15.0 15.0
15.0 15.0 15.0 15.0 15.0 15.0 15.0 15.0 15.0 15.0 15.0 15.0 15.0 13.9 15.0 15.0 15.0 15.0 15.0 15.0 15.0 15.0 15.0 15.0 14.2 6.5 0.2 0.4 1.3 15.0 15.0 15.0 15.0 15.0 15.0 15.0 15.0 15.0
15.0 15.0 15.0 15.0 15.0 15.0 15.0 15.0 15.0 15.0 15.0 15.0 6.9 15.0 15.0 15.0 15.0 15.0 4.9 12.0 12.8 15.0 15.0 15.0 15.0 15.0 2.6 2.3 3.1 1.2 15.0 0.3 15.0 15.0 15.0 15.0 15.0 15.0
15.0 15.0 15.0 15.0 15.0 15.0 15.0 15.0 15.0 15.0 15.0 15.0 12.7 13.6 14.9 13.5 12.7 15.0 14.6 6.8 0.7 5.0 14.7 15.0 15.0 15.0 15.0 15.0 1.1 9.9 12.8 15.0 15.0 15.0 11.4 1.2 15.0 15.0
15.0 15.0 15.0 15.0 15.0 15.0 15.0 15.0 15.0 15.0 15.0 15.0 14.2 6.0 2.6 2.3 3.1 5.6 3.4 1.4 1.0 6.3 12.6 15.0 15.0 11.2 15.0 15.0 13.3 12.9 15.0 15.0 15.0 15.0 15.0 3.8 11.0 15.0
15.0 15.0 15.0 15.0 15.0 15.0 15.0 15.0 15.0 15.0 13.3 4.9 10.6 2.4 1.7 1.5 4.8 8.3 9.4 3.2 2.8 11.9 15.0 15.0 12.6 1.1 0.2 1.8 15.0 15.0 15.0 15.0 15.0 15.0 15.0 12.7 2.8 15.0
15.0 15.0 15.0 15.0 15.0 11.5 14.2 15.0 15.0 13.0 15.0 5.2 5.1 2.8 1.0 0.6 0.8 1.7 2.1 0.8 2.2 9.3 2.3 11.5 7.2 11.9 0.2 0.5 0.2 14.1 15.0 15.0 15.0 15.0 15.0 15.0 15.0 15.0
15.0 15.0 15.0 15.0 15.0 15.0 15.0 5.0 15.0 15.0 8.8 1.2 5.9 4.6 2.5 0.5 1.3 2.1 0.7 8.7 2.7 2.3 1.4 10.3 15.0 15.0 15.0 7.9 0.3 11.5 15.0 15.0 15.0 15.0 15.0 1.8 5.7 15.0
15.0 15.0 15.0 15.0 15.0 15.0 7.9 4.1 4.1 4.7 4.2 11.1 15.0 5.1 3.7 0.5 0.5 0.9 1.1 0.4 3.4 4.6 1.0 11.6 15.0 15.0 1.6 0.4 0.4 4.7 15.0 15.0 15.0 15.0 15.0 15.0 1.3 0.1
15.0 15.0 15.0 15.0 15.0 10.1 4.1 4.1 4.1 4.1 4.1 4.1 4.1 11.3 3.8 0.5 3.5 0.7 0.6 1.1 1.0 0.6 2.9 2.9 15.0 15.0 15.0 1.1 0.6 3.5 15.0 15.0 15.0 15.0 15.0 15.0 15.0 15.0